Retour au catalogue

RASSVET-3 31

ActifPO
NORAD 100097·PAYLOAD·🇷🇺 Russia

Lancé Jul 19, 2026 depuis Plesetsk Cosmodrome

Loading…

Prochains Passages (prochaines 24 heures)

TLE

FraisSource: Space-Track

Époque: Sep 14, 2026, 12:17 UTC

1 A0097U 26165Q   26257.51246185 -.00125371  00000-0 -17729-2 0  9999
2 A0097  82.2995 167.9132 0008636 333.9618  26.1201 15.56895087  8934

Suivez RASSVET-3 31 en temps réel avec AllMySat

Download on the App Store